Location: DARK SKY Beskydy - Park tmavé oblohy, www.darkskybeskydy.cz
(49.4926°N, 18.5016°E)
Time: 01:28:44
(UTC+02:00)

TIGRISAT - Pass Details

Date: 05 August 2024
Orbit: 591 x 668 km, 97.7° (Epoch: 14 September)

Event Time Altitude Azimuth Distance (km) Brightness Sun altitude
Rises 03:22:01 0° 132° (SE) 2,953 ? -15.8°
Reaches altitude 10° 03:24:31 10° 120° (ESE) 2,034 ? -15.6°
Maximum altitude 03:28:11 26° 64° (ENE) 1,257 ? -15.2°
Drops below altitude 10° 03:31:47 10° 9° (N) 2,005 ? -14.8°
Sets 03:34:13 0° 357° (N) 2,902 ? -14.6°
